Fort Covington, New York, United States (12937)
Lat: 44.99N, Lon: 74.5W
Wx Zone: NYZ027
Local Info
Past Weather Observations for Monday, July 25, 2016

NOTE: This archive is for the closest National Weather Service station to Fort Covington. Information may differ from the station used for current weather conditions.

Click here for Long-term Archive

Time Weather Temperature Dewpoint Humidity Pressure Winds Precip Visibility
23:53
Clear
70°F / 21°C 66°F / 19°C 88% 29.77 in
(1008 mb)
SW 6.9 mph
(SW 11 kph)
- 10SM
22:53
Clear
73°F / 23°C 70°F / 21°C 89% 29.77 in
(1008 mb)
SW 6.9 mph
(SW 11 kph)
- 10SM
21:53
Clear
72°F / 22°C 70°F / 21°C 94% 29.74 in
(1007 mb)
SW 10.4 mph
(SW 17 kph)
- 9SM
21:12
Clear
72°F / 22°C 68°F / 20°C 88% 29.77 in
(1008 mb)
SSE 4.6 mph
(SSE 7 kph)
- 10SM
20:53
Clear
Thunder Storms
72°F / 22°C 68°F / 20°C 88% 29.77 in
(1008 mb)
SW 6.9 mph
(SW 11 kph)
0.69 in
(17.53 mm)
10SM
20:41
Partly Cloudy
73°F / 23°C 70°F / 21°C 89% 29.74 in
(1007 mb)
SW 10.4 mph
(SW 17 kph)
0.69 in
(17.53 mm)
10SM
20:25
Mostly Cloudy
Thunder Storms
72°F / 22°C 66°F / 19°C 83% 29.77 in
(1008 mb)
WNW 4.6 mph
(WNW 7 kph)
0.69 in
(17.53 mm)
9SM
20:15
Overcast
Thunder Storms
72°F / 22°C 68°F / 20°C 88% 29.77 in
(1008 mb)
SW 6.9 mph
(SW 11 kph)
0.69 in
(17.53 mm)
4SM
20:12
Overcast
Rain
72°F / 22°C 66°F / 19°C 83% 29.77 in
(1008 mb)
SW 10.4 mph
(SW 17 kph)
0.68 in
(17.27 mm)
2SM
20:09
Overcast
Thunder Storms
73°F / 23°C 66°F / 19°C 78% 29.77 in
(1008 mb)
SSW 12.7 mph
(SSW 20 kph)
0.68 in
(17.27 mm)
1SM
20:02
Overcast
Thunder Storms
73°F / 23°C 64°F / 18°C 74% 29.77 in
(1008 mb)
Variable 3.5 mph
(Variable 6 kph)
0.60 in
(15.24 mm)
1/2SM
19:55
Mostly Cloudy
Thunder Storms
72°F / 22°C 66°F / 19°C 83% 29.77 in
(1008 mb)
NW 21.9 mph
(NW 35 kph)
0.13 in
(3.30 mm)
1 1/4SM
19:53
Mostly Cloudy
Thunder Storms
72°F / 22°C 66°F / 19°C 83% 29.77 in
(1008 mb)
NW 18.4 mph
(NW 30 kph)
0.17 in
(4.32 mm)
2SM
18:53
Clear
77°F / 25°C 70°F / 21°C 79% 29.74 in
(1007 mb)
SW 10.4 mph
(SW 17 kph)
- 10SM
18:17
Partly Cloudy
79°F / 26°C 70°F / 21°C 74% 29.74 in
(1007 mb)
SW 12.7 mph
(SW 20 kph)
- 10SM
17:53
Mostly Cloudy
79°F / 26°C 70°F / 21°C 74% 29.74 in
(1007 mb)
SW 12.7 mph
(SW 20 kph)
- 10SM
17:45
Mostly Cloudy
79°F / 26°C 70°F / 21°C 74% 29.74 in
(1007 mb)
SW 9.2 mph
(SW 15 kph)
- 10SM
17:16
Partly Cloudy
79°F / 26°C 70°F / 21°C 74% 29.71 in
(1006 mb)
SW 15 mph
(SW 24 kph)
- 10SM
16:53
Overcast
79°F / 26°C 70°F / 21°C 74% 29.74 in
(1007 mb)
SW 12.7 mph
(SW 20 kph)
0.01 in
(0.25 mm)
10SM
15:53
Overcast
77°F / 25°C 70°F / 21°C 79% 29.77 in
(1008 mb)
SW 15 mph
(SW 24 kph)
0.00 in
(0.00 mm)
10SM
15:19
Mostly Cloudy
79°F / 26°C 68°F / 20°C 70% 29.77 in
(1008 mb)
SW 19.6 mph
(SW 32 kph)
- 10SM
14:53
Overcast
79°F / 26°C 68°F / 20°C 70% 29.77 in
(1008 mb)
SW 16.1 mph
(SW 26 kph)
- 10SM
13:53
Partly Cloudy
81°F / 27°C 70°F / 21°C 70% 29.74 in
(1007 mb)
SSE 11.5 mph
(SSE 19 kph)
- 10SM
12:53
Partly Cloudy
79°F / 26°C 68°F / 20°C 70% 29.77 in
(1008 mb)
SW 15 mph
(SW 24 kph)
- 10SM
11:53
Clear
79°F / 26°C 66°F / 19°C 65% 29.83 in
(1010 mb)
SW 15 mph
(SW 24 kph)
- 10SM
10:53
Mostly Cloudy
75°F / 24°C 66°F / 19°C 74% 29.83 in
(1010 mb)
SSE 6.9 mph
(SSE 11 kph)
0.00 in
(0.00 mm)
10SM
09:53
Partly Cloudy
72°F / 22°C 64°F / 18°C 78% 29.83 in
(1010 mb)
SE 4.6 mph
(SE 7 kph)
- 10SM
08:53
Partly Cloudy
70°F / 21°C 63°F / 17°C 78% 29.86 in
(1011 mb)
SE 4.6 mph
(SE 7 kph)
0.01 in
(0.25 mm)
10SM
07:53
Overcast
Light Rain
68°F / 20°C 63°F / 17°C 83% 29.89 in
(1012 mb)
ENE 3.5 mph
(ENE 6 kph)
0.00 in
(0.00 mm)
10SM
06:53
Mostly Cloudy
66°F / 19°C 61°F / 16°C 83% 29.89 in
(1012 mb)
ENE 3.5 mph
(ENE 6 kph)
- 10SM
05:53
Partly Cloudy
63°F / 17°C 59°F / 15°C 88% 29.89 in
(1012 mb)
NE 3.5 mph
(NE 6 kph)
- 10SM
04:53
Partly Cloudy
61°F / 16°C 57°F / 14°C 88% 29.89 in
(1012 mb)
Calm - 10SM
03:53
Clear
57°F / 14°C 57°F / 14°C 100% 29.89 in
(1012 mb)
Calm - 10SM
02:53
Clear
61°F / 16°C 57°F / 14°C 88% 29.92 in
(1013 mb)
Calm - 10SM
01:53
Clear
61°F / 16°C 57°F / 14°C 88% 29.92 in
(1013 mb)
Calm - 10SM
00:53
Clear
61°F / 16°C 57°F / 14°C 88% 29.92 in
(1013 mb)
NE 3.5 mph
(NE 6 kph)
- 10SM
Time Weather Temperature Dewpoint Humidity Pressure Winds Precip Visibility


Weather for websites

WeatherForYou.com, LLC is not responsible for any damages or problems caused by this service. Current weather conditions are obtained from the closest station including government and personal stations which may have varying degrees of accuracy. Weather forecasts are derived from the NOAA NDFD. Like all things, this site belongs to Jesus Christ... He just trusts us to maintain it. If you have any questions or comments email webmaster@weatherforyou.com

Copyright © 2016, WeatherForYou.com LLC. All rights reserved.